FLOCK 4A-8 (44092 NORAD) Tracking and Keplerian Element Data

This shows tracking and keplerian element data for the satellite.

Feedback or suggestion? Click here.




ElementValue
Catalog44092
NameFLOCK 4A-8
Epoch Orbit430
Epoch Day119.67803664
Epoch Year2019
RAAN180.0058
Inclination97.4616
Eccentricity0.0011389
Argument of Perigee181.0704
Mean Anonmoly179.051
Mean Motion15.2184987
Decay Rate1.386E-05
L11 44092U 19018Q 19119.67803664 .00001386 00000-0 63986-4 0 9993
L22 44092 97.4616 180.0058 0011389 181.0704 179.0510 15.21849870 4304

Live tracking and technical data element details for FLOCK 4A-8 (NORAD 44092). FLOCK 4A-8 can be tracked NOW for your location showing map with azimuth and elevation plus other details from your city location.

Track the satellite on the map from your city or location and see movement details for azimuth, elevation, latitude, longitude, range, height, and movement on the map or in text.







IsCatalogInMostPopularTable: catalog: 44092, numindb: 35
Update: records affected: 1



GetName: 44092 FLOCK 4A-8

Hit Count: updated at: Tue, 23 Jul 2019 03:34:12 GMT